JOTAC Weather Reports


time (UTC)temp
F
wind
direction
speed
knots
gust
knots
rain 1hr
in
rain 24hr
in
rain mn
in
humidity
%
barometer
mb
20260506203043 51 94 0.9 2.6 0.00 0.00 0.00 59 1012.2
20260506201532 51 109 0.9 1.7 0.00 0.00 0.00 58 1012.0
20260506200044 52 120 0.9 2.6 0.00 0.00 0.00 57 1011.9
20260506194531 52 129 0.9 2.6 0.00 0.00 0.00 54 1011.9
20260506193032 53 129 0.0 1.7 0.00 0.00 0.00 52 1011.8
20260506191530 54 129 0.9 3.5 0.00 0.00 0.00 51 1011.7
20260506190036 55 124 0.9 3.5 0.00 0.00 0.00 49 1011.6
20260506184531 56 135 0.9 3.5 0.00 0.00 0.00 46 1011.6
20260506183031 56 97 2.6 5.2 0.00 0.00 0.00 45 1011.6
20260506181534 57 133 1.7 7.8 0.00 0.00 0.00 43 1011.6
20260506180035 59 124 2.6 5.2 0.00 0.00 0.00 41 1011.6
20260506174531 59 118 2.6 6.1 0.00 0.03 0.00 41 1011.7
20260506173039 60 143 2.6 7.8 0.00 0.03 0.00 41 1011.8
20260506171534 60 180 0.9 7.0 0.00 0.03 0.00 42 1011.7
20260506170028 60 167 2.6 7.0 0.00 0.03 0.00 43 1011.8
20260506164530 61 144 3.5 8.7 0.00 0.07 0.00 41 1011.8
20260506163050 61 0 0.9 10.4 0.00 0.07 0.00 42 1011.8
20260506161531 61 124 2.6 9.6 0.00 0.07 0.00 42 1011.8
20260506160031 61 136 1.7 5.2 0.00 0.07 0.00 41 1011.8
20260506154537 60 238 1.7 6.1 0.00 0.11 0.00 42 1012.0
20260506153032 61 178 1.7 8.7 0.00 0.11 0.00 45 1012.2
20260506151538 59 165 0.9 5.2 0.00 0.11 0.00 46 1012.2
20260506150032 58 149 2.6 13.0 0.00 0.11 0.00 46 1012.5
20260506144529 60 137 2.6 7.0 0.00 0.11 0.00 44 1012.6
20260506143032 60 122 0.9 7.0 0.00 0.11 0.00 43 1012.6
20260506141529 60 94 3.5 9.6 0.00 0.11 0.00 44 1012.7
20260506140035 59 91 3.5 7.8 0.00 0.11 0.00 42 1012.8
20260506134532 59 127 1.7 4.3 0.00 0.11 0.00 47 1013.0
20260506133029 57 202 0.0 7.0 0.00 0.11 0.00 50 1013.1
20260506131535 58 133 2.6 6.1 0.00 0.11 0.00 51 1013.1
20260506130030 57 180 1.7 5.2 0.00 0.11 0.00 54 1013.3
20260506124532 55 0 0.9 5.2 0.00 0.11 0.00 53 1013.5
20260506123032 55 165 0.9 5.2 0.00 0.11 0.00 54 1013.7
20260506121532 55 142 1.7 3.5 0.00 0.11 0.00 55 1013.8
20260506120034 55 0 0.0 3.5 0.00 0.11 0.00 59 1013.9
20260506114531 56 95 0.9 3.5 0.00 0.11 0.00 56 1014.0
20260506113030 53 211 2.6 5.2 0.00 0.11 0.00 57 1014.1
20260506111534 53 280 0.9 7.0 0.00 0.11 0.00 57 1014.1
20260506110030 54 285 1.7 4.3 0.00 0.11 0.00 59 1014.1
20260506104529 55 0 0.0 3.5 0.00 0.11 0.00 57 1014.1
20260506103031 55 82 0.0 6.1 0.00 0.11 0.00 57 1014.2
20260506101528 55 20 0.9 4.3 0.00 0.11 0.00 57 1014.2
20260506100031 55 71 2.6 6.1 0.00 0.11 0.00 54 1014.2
20260506094532 54 94 1.7 3.5 0.00 0.11 0.00 57 1014.3
20260506093032 53 104 2.6 5.2 0.00 0.11 0.00 59 1014.2
20260506091530 53 61 0.0 3.5 0.00 0.11 0.00 63 1014.2
20260506090029 52 322 1.7 4.3 0.00 0.11 0.00 63 1014.2
20260506084537 51 317 1.7 4.3 0.00 0.11 0.00 67 1014.1
20260506083032 49 316 0.9 3.5 0.00 0.11 0.00 67 1014.1
20260506081530 48 300 0.9 3.5 0.00 0.11 0.00 71 1014.2
20260506073031 47 340 0.0 2.6 0.00 0.11 0.00 73 1014.2
20260506071531 46 345 0.9 3.5 0.00 0.11 0.00 75 1014.1
20260506061531 39 360 0.9 4.3 0.00 0.11 0.00 86 1014.1
20260506044532 37 348 0.9 2.6 0.00 0.11 0.00 86 1013.8
20260506043031 37 360 0.0 4.3 0.00 0.11 0.00 87 1013.9
20260506041549 37 333 1.7 4.3 0.00 0.11 0.00 86 1014.1
20260506040032 37 329 1.7 4.3 0.00 0.11 0.00 87 1014.1
20260506034546 37 0 0.0 2.6 0.00 0.11 0.00 88 1014.2
20260506033030 37 0 0.0 2.6 0.00 0.11 0.00 87 1014.3
20260506031529 37 327 0.9 2.6 0.00 0.11 0.00 88 1014.2
20260506030029 37 332 0.0 2.6 0.00 0.11 0.00 88 1014.1
20260506024531 37 327 0.9 3.5 0.00 0.11 0.00 88 1014.2
20260506023030 37 0 0.9 3.5 0.00 0.11 0.00 88 1014.1
20260506021532 37 331 0.9 3.5 0.00 0.11 0.00 89 1014.2
20260506020032 37 355 0.9 2.6 0.00 0.11 0.00 88 1014.3
20260506014531 38 310 0.0 2.6 0.00 0.11 0.00 87 1014.3
20260506013041 39 322 0.0 1.7 0.00 0.11 0.00 87 1014.4
20260506011540 39 344 0.9 2.6 0.00 0.11 0.00 88 1014.5
20260506010033 38 0 0.9 2.6 0.00 0.11 0.00 87 1014.6
20260506004530 38 313 0.9 3.5 0.00 0.11 0.00 87 1014.9
20260506003032 38 309 1.7 3.5 0.00 0.11 0.00 87 1014.9
20260506001529 38 345 0.9 2.6 0.00 0.11 0.00 86 1014.8
20260506000031 38 0 0.0 1.7 0.00 0.11 0.00 86 1015.0
20260505234531 39 0 0.0 3.5 0.00 0.11 0.00 85 1015.0
20260505233032 41 322 0.0 1.7 0.00 0.11 0.00 83 1015.1
20260505231531 40 360 0.9 4.3 0.00 0.11 0.00 85 1015.1
20260505230030 40 332 0.9 3.5 0.00 0.11 0.00 86 1015.1
20260505224533 40 19 2.6 5.2 0.00 0.11 0.00 86 1015.2
20260505223037 40 300 1.7 6.1 0.00 0.11 0.00 85 1015.2
20260505221530 41 328 0.9 1.7 0.00 0.11 0.00 85 1015.3
20260505220048 41 327 0.9 2.6 0.00 0.11 0.00 84 1015.5
20260505214535 42 329 1.7 3.5 0.00 0.11 0.11 83 1015.4
20260505213034 42 350 0.9 4.3 0.00 0.11 0.11 82 1015.4
20260505211531 43 340 1.7 4.3 0.00 0.11 0.11 81 1015.4
20260505210033 43 0 0.9 3.5 0.00 0.11 0.11 82 1015.3
20260505204530 43 0 0.0 1.7 0.00 0.11 0.11 82 1015.1